Location: Newark
(44.6028°N, 124.0883°W)
Time: 23:26:08
(UTC+00:00)

Vanguard 1 Rocket - Pass Details

Date: 28 October 2019
Orbit: 651 x 4225 km, 34.3° (Epoch: 10 November)

Event Time Altitude Azimuth Distance (km) Brightness Sun altitude
Rises 23:39:37 0° 280° (W) 7,003 12.6 14.0°
Reaches altitude 10° 23:44:40 10° 271° (W) 6,418 12.8 13.3°
Maximum altitude 00:02:19 31° 220° (SW) 5,726 12.8 10.6°
Drops below altitude 10° 00:22:24 10° 168° (SSE) 7,171 12.2 7.5°
Sets 00:28:44 0° 159° (SSE) 7,887 12.2 6.4°
